GW3570 Weather Reports


Display with metric or nautical units.
time (UTC)temp
F
wind
direction
speed
MPH
gust
MPH
rain 1hr
in
rain 24hr
in
rain mn
in
humidity
%
barometer
mb
20260831144804 89 142 2.0 3.0 0.00 0.00 0.00 53 1017.5
20260831144300 88 152 2.0 2.0 0.00 0.00 0.00 52 1017.6
20260831143800 88 187 5.0 6.0 0.00 0.00 0.00 53 1017.7
20260831143255 88 158 3.0 3.0 0.00 0.00 0.00 53 1017.6
20260831142750 87 186 3.0 3.0 0.00 0.00 0.00 56 1017.8
20260831142246 86 162 4.0 5.0 0.00 0.00 0.00 55 1017.5
20260831141745 86 150 3.0 3.0 0.00 0.00 0.00 57 1017.6
20260831141240 85 167 2.0 2.0 0.00 0.00 0.00 58 1017.6
20260831140735 85 160 1.0 2.0 0.00 0.00 0.00 57 1017.6
20260831140229 85 171 2.0 2.0 0.00 0.00 0.00 57 1017.7
20260831135727 84 145 3.0 3.0 0.00 0.00 0.00 57 1017.5
20260831135223 84 153 2.0 2.0 0.00 0.00 0.00 58 1017.6
20260831134718 84 247 0.0 1.0 0.00 0.00 0.00 58 1017.5
20260831134214 84 147 0.0 0.0 0.00 0.00 0.00 58 1017.7
20260831133713 82 162 0.0 0.0 0.00 0.00 0.00 60 1017.4
20260831133208 81 168 0.0 0.0 0.00 0.00 0.00 62 1017.5
20260831132703 79 148 0.0 0.0 0.00 0.00 0.00 66 1017.5
20260831132203 78 156 0.0 0.0 0.00 0.00 0.00 67 1017.4
20260831131657 78 137 0.0 0.0 0.00 0.00 0.00 67 1017.6
20260831131154 78 111 0.0 1.0 0.00 0.00 0.00 68 1017.5
20260831130649 77 120 1.0 2.0 0.00 0.00 0.00 70 1017.4
20260831130144 76 132 0.0 0.0 0.00 0.00 0.00 71 1017.5
20260831125642 76 128 0.0 0.0 0.00 0.00 0.00 71 1017.4
20260831125138 75 76 1.0 1.0 0.00 0.00 0.00 72 1017.0
20260831124634 75 315 0.0 0.0 0.00 0.00 0.00 73 1017.1
20260831124130 75 260 0.0 0.0 0.00 0.00 0.00 74 1017.2
20260831123629 75 171 0.0 0.0 0.00 0.00 0.00 72 1017.0
20260831123128 75 141 0.0 0.0 0.00 0.00 0.00 72 1016.8
20260831122628 75 16 0.0 0.0 0.00 0.00 0.00 73 1016.8
20260831122125 75 135 0.0 0.0 0.00 0.00 0.00 72 1017.0
20260831121624 74 40 0.0 0.0 0.00 0.00 0.00 73 1017.0
20260831121121 74 2 0.0 0.0 0.00 0.00 0.00 75 1017.0
20260831120620 73 350 0.0 0.0 0.00 0.00 0.00 76 1016.9
20260831120115 73 355 1.0 1.0 0.00 0.00 0.00 76 1016.8
20260831115611 73 353 1.0 1.0 0.00 0.00 0.00 77 1016.6
20260831115107 73 308 1.0 2.0 0.00 0.00 0.00 76 1016.6
20260831114605 73 329 1.0 1.0 0.00 0.00 0.00 75 1016.7
20260831114101 74 288 0.0 0.0 0.00 0.00 0.00 74 1016.4
20260831113559 74 152 0.0 0.0 0.00 0.00 0.00 73 1016.2
20260831113056 74 285 0.0 0.0 0.00 0.00 0.00 73 1016.4
20260831112554 74 341 1.0 1.0 0.00 0.00 0.00 73 1016.3
20260831112050 74 22 0.0 1.0 0.00 0.00 0.00 72 1016.2
20260831111546 75 323 1.0 1.0 0.00 0.00 0.00 72 1016.1
20260831111041 75 60 0.0 0.0 0.00 0.00 0.00 69 1016.2
20260831110536 76 159 0.0 0.0 0.00 0.00 0.00 69 1016.0
20260831110031 75 66 1.0 2.0 0.00 0.00 0.00 70 1016.0
20260831105525 75 339 1.0 1.0 0.00 0.00 0.00 71 1016.0
20260831105020 75 117 0.0 0.0 0.00 0.00 0.00 71 1015.9
20260831104516 75 290 0.0 0.0 0.00 0.00 0.00 71 1016.1
20260831104012 75 88 0.0 0.0 0.00 0.00 0.00 72 1016.0
20260831103507 75 346 1.0 2.0 0.00 0.00 0.00 72 1016.2
20260831103004 75 145 0.0 0.0 0.00 0.00 0.00 70 1015.9
20260831102502 75 148 0.0 0.0 0.00 0.00 0.00 70 1016.0
20260831101957 75 167 0.0 0.0 0.00 0.00 0.00 71 1016.0
20260831101452 75 261 0.0 0.0 0.00 0.00 0.00 71 1015.8
20260831100948 75 2 0.0 0.0 0.00 0.00 0.00 72 1015.9
20260831100444 75 352 0.0 0.0 0.00 0.00 0.00 70 1015.8
20260831095939 75 134 0.0 0.0 0.00 0.00 0.00 70 1015.9
20260831095438 75 334 0.0 0.0 0.00 0.00 0.00 70 1015.8
20260831094933 76 8 0.0 0.0 0.00 0.00 0.00 69 1015.9
20260831094429 76 169 0.0 0.0 0.00 0.00 0.00 69 1015.8
20260831093925 76 343 0.0 0.0 0.00 0.00 0.00 69 1015.8
20260831093420 77 291 0.0 0.0 0.00 0.00 0.00 68 1015.7
20260831092917 77 79 0.0 0.0 0.00 0.00 0.00 67 1015.7
20260831092412 77 90 0.0 0.0 0.00 0.00 0.00 67 1015.6
20260831091907 77 335 0.0 0.0 0.00 0.00 0.00 68 1015.9
20260831091402 77 158 0.0 0.0 0.00 0.00 0.00 67 1015.9
20260831090852 78 349 1.0 1.0 0.00 0.00 0.00 67 1015.7
20260831090349 78 164 0.0 0.0 0.00 0.00 0.00 66 1015.9
20260831085845 79 132 0.0 0.0 0.00 0.00 0.00 65 1015.8
20260831085344 80 140 1.0 1.0 0.00 0.00 0.00 64 1015.6
20260831084839 80 111 2.0 2.0 0.00 0.00 0.00 62 1015.7
20260831084335 80 115 1.0 1.0 0.00 0.00 0.00 62 1015.7
20260831083831 80 97 2.0 2.0 0.00 0.00 0.00 62 1015.6
20260831083326 80 88 3.0 3.0 0.00 0.00 0.00 63 1015.8
20260831082825 81 98 3.0 3.0 0.00 0.00 0.00 63 1015.6
20260831082320 81 60 1.0 1.0 0.00 0.00 0.00 62 1015.5
20260831081816 81 120 2.0 2.0 0.00 0.00 0.00 61 1015.7
20260831081311 81 59 1.0 1.0 0.00 0.00 0.00 61 1015.5
20260831080807 81 78 2.0 2.0 0.00 0.00 0.00 60 1015.5
20260831080301 81 125 3.0 3.0 0.00 0.00 0.00 60 1015.2
20260831075757 81 122 3.0 3.0 0.00 0.00 0.00 60 1015.3
20260831075253 81 119 5.0 6.0 0.00 0.00 0.00 60 1015.3
20260831074752 82 108 3.0 3.0 0.00 0.00 0.00 59 1015.5
20260831074246 82 136 4.0 5.0 0.00 0.00 0.00 59 1015.2
20260831073742 82 131 2.0 3.0 0.00 0.00 0.00 59 1015.2
20260831073235 82 131 3.0 5.0 0.00 0.00 0.00 59 1015.5
20260831072730 82 116 4.0 5.0 0.00 0.00 0.00 59 1015.5
20260831072227 82 131 6.0 8.0 0.00 0.00 0.00 57 1015.3
20260831071726 82 90 3.0 6.0 0.00 0.00 0.00 60 1015.3
20260831071221 82 140 1.0 2.0 0.00 0.00 0.00 58 1015.5
20260831070720 82 124 3.0 3.0 0.00 0.00 0.00 58 1015.5
20260831070214 82 125 4.0 5.0 0.00 0.00 0.00 59 1015.5
20260831065709 82 122 4.0 5.0 0.00 0.00 0.00 59 1015.3
20260831065207 82 106 3.0 3.0 0.00 0.00 0.00 58 1015.6
20260831064702 82 97 4.0 5.0 0.00 0.00 0.00 58 1015.6
20260831064157 82 101 2.0 2.0 0.00 0.00 0.00 59 1015.3
20260831063653 82 127 4.0 5.0 0.00 0.00 0.00 59 1015.0
20260831063143 82 132 3.0 5.0 0.00 0.00 0.00 59 1015.6
20260831062642 83 117 1.0 2.0 0.00 0.00 0.00 58 1015.6
20260831062136 83 70 2.0 2.0 0.00 0.00 0.00 61 1015.3
20260831061634 83 126 2.0 2.0 0.00 0.00 0.00 59 1015.5
20260831061125 83 129 2.0 3.0 0.00 0.00 0.00 58 1015.5
20260831060621 83 138 2.0 3.0 0.00 0.00 0.00 58 1015.3
20260831060115 84 126 2.0 5.0 0.00 0.00 0.00 58 1015.3
20260831055614 84 157 3.0 3.0 0.00 0.00 0.00 58 1015.6
20260831055110 84 136 3.0 3.0 0.00 0.00 0.00 55 1015.1
20260831054610 84 136 4.0 5.0 0.00 0.00 0.00 55 1015.5
20260831054109 84 120 4.0 5.0 0.00 0.00 0.00 56 1015.5
20260831053608 84 142 4.0 5.0 0.00 0.00 0.00 56 1015.2
20260831053102 84 68 2.0 3.0 0.00 0.00 0.00 56 1015.1
20260831052601 84 313 3.0 5.0 0.00 0.00 0.00 55 1015.3
20260831052056 84 133 3.0 3.0 0.00 0.00 0.00 54 1015.0
20260831051554 84 105 3.0 3.0 0.00 0.00 0.00 56 1015.1
20260831051053 85 144 3.0 3.0 0.00 0.00 0.00 54 1014.9
20260831050553 85 172 5.0 6.0 0.00 0.00 0.00 54 1015.1
20260831050051 85 120 3.0 3.0 0.00 0.00 0.00 55 1014.9
20260831045551 85 89 3.0 3.0 0.00 0.00 0.00 55 1015.1
20260831045046 85 138 3.0 5.0 0.00 0.00 0.00 54 1015.1
20260831044542 85 119 4.0 6.0 0.00 0.00 0.00 56 1014.9
20260831044037 85 157 3.0 3.0 0.00 0.00 0.00 52 1014.9
20260831043537 85 92 3.0 5.0 0.00 0.00 0.00 54 1015.0
20260831043032 85 166 2.0 3.0 0.00 0.00 0.00 53 1015.0
20260831042527 85 133 3.0 3.0 0.00 0.00 0.00 54 1015.1
20260831042026 84 112 3.0 3.0 0.00 0.00 0.00 58 1014.9
20260831041521 83 24 1.0 1.0 0.00 0.00 0.00 58 1015.1
20260831041015 83 63 0.0 0.0 0.00 0.00 0.00 58 1014.7
20260831040510 83 149 0.0 1.0 0.00 0.00 0.00 56 1014.9
20260831040009 83 132 0.0 0.0 0.00 0.00 0.00 56 1014.8
20260831035502 83 118 0.0 0.0 0.00 0.00 0.00 57 1014.7
20260831034957 83 146 0.0 0.0 0.00 0.00 0.00 57 1014.7
20260831034451 83 131 0.0 0.0 0.00 0.00 0.00 56 1014.6
20260831033947 83 147 0.0 0.0 0.00 0.00 0.00 56 1014.6
20260831033442 83 161 0.0 0.0 0.00 0.00 0.00 58 1014.9
20260831032937 83 149 0.0 0.0 0.00 0.00 0.00 57 1014.7
20260831032432 83 155 0.0 0.0 0.00 0.00 0.00 57 1014.5
20260831031927 83 236 0.0 0.0 0.00 0.00 0.00 57 1014.4
20260831031427 83 67 0.0 0.0 0.00 0.00 0.00 55 1014.7
20260831030921 83 281 0.0 0.0 0.00 0.00 0.00 56 1014.6
20260831030420 84 297 0.0 0.0 0.00 0.00 0.00 56 1014.5
20260831025919 84 4 0.0 0.0 0.00 0.00 0.00 56 1014.4
20260831025418 84 66 0.0 0.0 0.00 0.00 0.00 56 1014.6
20260831024914 84 167 0.0 0.0 0.00 0.00 0.00 56 1014.6
20260831024413 84 294 0.0 1.0 0.00 0.00 0.00 56 1014.4
20260831023908 84 236 0.0 0.0 0.00 0.00 0.00 55 1014.3
20260831023406 84 173 0.0 0.0 0.00 0.00 0.00 55 1014.3
20260831022901 84 117 0.0 0.0 0.00 0.00 0.00 55 1014.1
20260831022400 84 183 0.0 0.0 0.00 0.00 0.00 54 1014.1
20260831021855 84 15 0.0 0.0 0.00 0.00 0.00 55 1014.1
20260831021354 85 64 0.0 0.0 0.00 0.00 0.00 55 1014.2
20260831020850 85 123 0.0 0.0 0.00 0.00 0.00 54 1014.1
20260831020350 85 203 0.0 0.0 0.00 0.00 0.00 54 1014.0
20260831015845 85 77 0.0 0.0 0.00 0.00 0.00 53 1014.0
20260831015341 86 330 0.0 0.0 0.00 0.00 0.00 53 1013.8
20260831014841 86 86 0.0 0.0 0.00 0.00 0.00 53 1013.9
20260831014336 86 100 0.0 0.0 0.00 0.00 0.00 52 1013.7
20260831013832 86 248 0.0 0.0 0.00 0.00 0.00 51 1013.4
20260831013331 87 195 0.0 0.0 0.00 0.00 0.00 51 1013.7
20260831012826 87 184 0.0 0.0 0.00 0.00 0.00 50 1013.5
20260831012322 89 196 0.0 0.0 0.00 0.00 0.00 50 1013.6
20260831011821 89 139 0.0 0.0 0.00 0.00 0.00 50 1013.3
20260831011316 90 151 0.0 0.0 0.00 0.00 0.00 49 1013.4
20260831010812 90 115 3.0 3.0 0.00 0.00 0.00 49 1013.5
20260831010307 90 127 4.0 5.0 0.00 0.00 0.00 48 1013.3
20260831005803 91 119 2.0 2.0 0.00 0.00 0.00 48 1013.3
20260831005258 91 124 3.0 5.0 0.00 0.00 0.00 46 1013.3
20260831004752 91 120 2.0 2.0 0.00 0.00 0.00 46 1013.3
20260831004248 91 111 1.0 2.0 0.00 0.00 0.00 51 1013.6
20260831003744 92 122 4.0 5.0 0.00 0.00 0.00 44 1013.5
20260831003240 92 184 2.0 2.0 0.00 0.00 0.00 45 1013.3
20260831002739 93 103 3.0 5.0 0.00 0.00 0.00 47 1013.7
20260831002238 93 92 3.0 3.0 0.00 0.00 0.00 45 1013.5
20260831001735 93 116 4.0 5.0 0.00 0.00 0.00 45 1013.3
20260831001229 93 108 5.0 6.0 0.00 0.00 0.00 43 1013.4
20260831000726 94 97 3.0 3.0 0.00 0.00 0.00 45 1013.3
20260831000221 94 115 2.0 2.0 0.00 0.00 0.00 46 1013.4
20260830235720 94 109 2.0 3.0 0.00 0.00 0.00 45 1013.3
20260830235215 94 125 2.0 3.0 0.00 0.00 0.00 42 1013.5
20260830234710 95 125 1.0 2.0 0.00 0.00 0.00 44 1013.4
20260830234206 95 87 1.0 2.0 0.00 0.00 0.00 43 1013.5
20260830233701 95 108 4.0 6.0 0.00 0.00 0.00 43 1013.6
20260830233157 95 272 3.0 5.0 0.00 0.00 0.00 42 1013.6
20260830232652 96 137 3.0 5.0 0.00 0.00 0.00 43 1013.6
20260830232148 96 60 3.0 6.0 0.00 0.00 0.00 41 1013.5
20260830231644 96 105 5.0 6.0 0.00 0.00 0.00 40 1013.3
20260830231138 96 132 6.0 7.0 0.00 0.00 0.00 39 1013.3
20260830230634 96 103 2.0 3.0 0.00 0.00 0.00 42 1013.4
20260830230133 97 76 4.0 7.0 0.00 0.00 0.00 40 1013.4
20260830225628 98 51 4.0 5.0 0.00 0.00 0.00 40 1013.4
20260830225123 98 149 4.0 5.0 0.00 0.00 0.00 35 1013.4
20260830224621 97 153 1.0 2.0 0.00 0.00 0.00 36 1013.3
20260830224117 98 147 3.0 3.0 0.00 0.00 0.00 41 1013.2
20260830223614 98 73 4.0 5.0 0.00 0.00 0.00 40 1013.4
20260830223114 98 101 3.0 3.0 0.00 0.00 0.00 37 1013.3
20260830222609 99 130 4.0 6.0 0.00 0.00 0.00 39 1013.2
20260830222105 99 101 5.0 6.0 0.00 0.00 0.00 38 1013.7
20260830221600 99 131 4.0 5.0 0.00 0.00 0.00 36 1013.5
20260830221056 100 112 7.0 8.0 0.00 0.00 0.00 35 1013.4
20260830220551 100 172 0.0 0.0 0.00 0.00 0.00 33 1013.4
20260830220049 100 157 6.0 7.0 0.00 0.00 0.00 34 1013.5
20260830215544 100 111 6.0 7.0 0.00 0.00 0.00 36 1013.4
20260830215038 100 81 3.0 7.0 0.00 0.00 0.00 35 1013.5
20260830214533 100 107 4.0 5.0 0.00 0.00 0.00 38 1013.7
20260830214028 100 119 5.0 6.0 0.00 0.00 0.00 36 1013.5
20260830213527 100 110 2.0 3.0 0.00 0.00 0.00 35 1013.8
20260830213023 100 132 5.0 5.0 0.00 0.00 0.00 35 1013.9
20260830212518 100 122 5.0 8.0 0.00 0.00 0.00 35 1013.6
20260830212013 101 208 7.0 7.0 0.00 0.00 0.00 32 1013.7
20260830211508 100 142 4.0 5.0 0.00 0.00 0.00 33 1013.8
20260830211003 100 166 4.0 5.0 0.00 0.00 0.00 35 1013.9
20260830210502 100 132 6.0 7.0 0.00 0.00 0.00 33 1013.8
20260830210001 100 156 6.0 7.0 0.00 0.00 0.00 35 1013.8
20260830205454 100 125 3.0 5.0 0.00 0.00 0.00 38 1013.9
20260830204950 100 101 3.0 5.0 0.00 0.00 0.00 36 1013.9
20260830204449 100 184 3.0 5.0 0.00 0.00 0.00 34 1013.9
20260830203944 100 150 3.0 3.0 0.00 0.00 0.00 36 1014.0
20260830203440 100 134 7.0 9.0 0.00 0.00 0.00 35 1013.8
20260830202939 100 166 4.0 5.0 0.00 0.00 0.00 35 1014.1
20260830202434 100 133 4.0 6.0 0.00 0.00 0.00 35 1014.1
20260830201930 100 130 5.0 6.0 0.00 0.00 0.00 34 1014.1
20260830201423 99 149 6.0 7.0 0.00 0.00 0.00 36 1014.3
20260830200919 99 116 5.0 6.0 0.00 0.00 0.00 33 1014.4
20260830200419 99 170 3.0 5.0 0.00 0.00 0.00 36 1014.4
20260830195909 99 162 5.0 5.0 0.00 0.00 0.00 37 1014.7
20260830195408 99 153 4.0 5.0 0.00 0.00 0.00 35 1014.8
20260830194906 100 139 6.0 7.0 0.00 0.00 0.00 35 1014.6
20260830194401 100 161 4.0 5.0 0.00 0.00 0.00 35 1014.5
20260830193855 100 186 5.0 6.0 0.00 0.00 0.00 36 1014.8
20260830193354 100 136 4.0 5.0 0.00 0.00 0.00 35 1014.8
20260830192850 100 130 4.0 6.0 0.00 0.00 0.00 35 1014.7
20260830192349 100 161 4.0 5.0 0.00 0.00 0.00 38 1014.8
20260830191845 99 160 3.0 3.0 0.00 0.00 0.00 36 1015.1
20260830191345 100 170 3.0 5.0 0.00 0.00 0.00 36 1014.9
20260830190841 99 157 5.0 6.0 0.00 0.00 0.00 38 1015.0
20260830190336 98 159 2.0 2.0 0.00 0.00 0.00 36 1015.0
20260830185834 97 184 3.0 3.0 0.00 0.00 0.00 40 1015.0
20260830185329 98 153 7.0 8.0 0.00 0.00 0.00 37 1015.2
20260830184824 99 162 5.0 7.0 0.00 0.00 0.00 37 1015.1
20260830184319 99 105 3.0 3.0 0.00 0.00 0.00 35 1015.2
20260830183813 98 126 6.0 7.0 0.00 0.00 0.00 36 1015.5
20260830183313 98 178 4.0 5.0 0.00 0.00 0.00 37 1015.5
20260830182809 97 185 3.0 5.0 0.00 0.00 0.00 38 1015.5
20260830182306 96 195 4.0 5.0 0.00 0.00 0.00 38 1015.3
20260830181801 96 132 6.0 7.0 0.00 0.00 0.00 37 1015.3
20260830181255 97 162 5.0 8.0 0.00 0.00 0.00 39 1015.5
20260830180754 96 159 4.0 5.0 0.00 0.00 0.00 39 1015.8
20260830180250 97 182 4.0 5.0 0.00 0.00 0.00 38 1015.9
20260830175743 97 176 4.0 5.0 0.00 0.00 0.00 39 1015.7
20260830175238 97 169 4.0 5.0 0.00 0.00 0.00 37 1015.7
20260830174733 97 161 5.0 6.0 0.00 0.00 0.00 37 1015.7
20260830174229 96 194 8.0 9.0 0.00 0.00 0.00 38 1016.0
20260830173728 96 171 5.0 6.0 0.00 0.00 0.00 39 1015.8
20260830173224 96 173 4.0 7.0 0.00 0.00 0.00 38 1016.0
20260830172720 96 167 6.0 7.0 0.00 0.00 0.00 38 1015.9
20260830172216 95 176 6.0 7.0 0.00 0.00 0.00 38 1016.1
20260830171711 95 146 6.0 7.0 0.00 0.00 0.00 41 1016.0
20260830171201 95 169 3.0 3.0 0.00 0.00 0.00 40 1016.2
20260830170656 95 174 5.0 6.0 0.00 0.00 0.00 41 1016.2
20260830170155 94 186 3.0 3.0 0.00 0.00 0.00 39 1016.4
20260830165649 94 144 4.0 5.0 0.00 0.00 0.00 41 1016.4
20260830165145 94 179 4.0 5.0 0.00 0.00 0.00 40 1016.6
20260830164642 94 208 6.0 7.0 0.00 0.00 0.00 39 1016.3
20260830164137 94 168 4.0 5.0 0.00 0.00 0.00 38 1016.5
20260830163633 93 167 5.0 6.0 0.00 0.00 0.00 41 1016.7
20260830163127 94 126 7.0 8.0 0.00 0.00 0.00 41 1016.4
20260830162623 94 137 6.0 7.0 0.00 0.00 0.00 43 1016.6
20260830162119 92 119 6.0 7.0 0.00 0.00 0.00 43 1016.6
20260830161618 93 154 3.0 3.0 0.00 0.00 0.00 40 1016.5
20260830161113 92 129 7.0 8.0 0.00 0.00 0.00 44 1016.4
20260830160609 92 143 3.0 3.0 0.00 0.00 0.00 45 1016.7
20260830160104 92 154 3.0 6.0 0.00 0.00 0.00 42 1016.4
20260830155600 92 167 3.0 3.0 0.00 0.00 0.00 45 1016.7
20260830155055 91 151 5.0 5.0 0.00 0.00 0.00 44 1016.7
20260830154550 91 149 5.0 7.0 0.00 0.00 0.00 43 1016.5
20260830154047 90 152 8.0 10.0 0.00 0.00 0.00 45 1016.5
20260830153543 90 148 5.0 6.0 0.00 0.00 0.00 43 1016.8
20260830153042 90 193 4.0 6.0 0.00 0.00 0.00 44 1016.6
20260830152537 90 137 5.0 6.0 0.00 0.00 0.00 47 1016.8
20260830152036 89 148 3.0 5.0 0.00 0.00 0.00 48 1016.6
20260830151530 88 147 1.0 1.0 0.00 0.00 0.00 47 1016.5
20260830151025 87 136 1.0 2.0 0.00 0.00 0.00 49 1016.5
20260830150524 87 147 4.0 5.0 0.00 0.00 0.00 48 1016.5
20260830150019 87 144 1.0 2.0 0.00 0.00 0.00 49 1016.6
20260830145514 86 147 0.0 0.0 0.00 0.00 0.00 49 1016.8